Date,TemperatureHighF,TemperatureAvgF,TemperatureLowF,DewpointHighF,DewpointAvgF,DewpointLowF,HumidityHigh,HumidityAvg,HumidityLow,PressureMaxIn,PressureMinIn,WindSpeedMaxMPH,WindSpeedAvgMPH,GustSpeedMaxMPH,PrecipitationSumIn
2012-1-1,52.3,45.7,36.3,49.1,43.1,34.7,96,91,84,30.12,29.66,32,8,32,0.04
2012-1-2,52.3,41.3,34.3,48.4,27.4,19.8,94,59,43,29.81,29.65,32,11,32,0.04
2012-1-3,34.7,27.1,17.2,24.6,13.9,2.3,73,57,47,30.07,29.78,31,9,31,0.00
2012-1-4,30.0,22.0,14.7,20.7,9.8,1.4,72,59,51,30.20,29.97,30,8,30,0.00
2012-1-5,40.3,33.2,28.6,27.5,22.4,18.7,77,64,51,29.97,29.80,23,6,24,0.00
2012-1-6,47.1,42.2,31.6,42.8,36.9,24.1,94,81,70,29.97,29.75,27,9,27,0.00
2012-1-7,51.4,46.1,41.9,44.8,41.8,36.3,94,85,62,29.94,29.72,20,6,23,0.00
2012-1-8,47.8,40.8,32.7,36.3,28.2,20.8,76,61,46,30.30,29.94,19,5,19,0.00
2012-1-9,42.3,35.7,28.9,34.9,25.6,19.4,76,67,49,30.32,29.98,18,4,18,0.00
2012-1-10,46.9,39.9,34.2,32.0,30.0,27.5,82,68,53,29.99,29.82,21,5,21,0.00
2012-1-11,45.5,39.3,29.7,42.4,32.5,25.5,89,77,60,30.12,29.88,32,8,32,0.00
2012-1-12,49.8,45.1,41.5,48.9,44.0,40.8,97,96,89,29.88,29.39,54,15,54,1.13
2012-1-13,52.2,39.9,30.6,49.6,33.2,17.4,99,78,55,29.79,29.30,53,20,54,1.13
2012-1-14,34.5,30.9,27.1,22.3,18.3,12.2,69,59,47,30.06,29.78,31,12,31,0.00
2012-1-15,27.1,20.6,16.9,14.0,4.9,-2.6,70,51,34,30.56,30.06,30,10,30,0.00
2012-1-16,42.4,27.3,14.0,35.2,19.1,5.7,85,71,59,30.61,30.19,40,11,43,0.00
2012-1-17,47.7,43.1,38.8,45.9,40.7,34.3,97,91,72,30.19,29.56,40,15,40,0.08
2012-1-18,50.7,38.4,24.6,47.1,23.1,8.6,94,55,40,30.18,29.55,35,13,35,0.08
2012-1-19,39.9,29.5,18.5,34.7,21.3,10.4,93,71,55,30.26,29.96,32,8,32,0.03
2012-1-20,38.3,31.1,26.4,34.2,19.3,10.6,92,62,43,30.30,29.94,33,8,34,0.00
2012-1-21,31.5,27.6,23.7,30.2,23.9,14.0,96,87,58,30.28,29.94,38,13,38,0.00
2012-1-22,33.4,27.9,20.1,29.8,24.5,17.1,91,87,84,30.52,30.27,21,12,21,0.00
2012-1-23,49.6,43.7,33.3,49.5,42.3,29.8,99,95,87,30.44,29.91,24,13,24,0.16
2012-1-24,48.2,44.4,40.3,48.0,41.9,34.5,99,91,72,30.09,29.90,25,8,26,0.00
2012-1-25,44.4,40.0,36.0,35.6,30.7,28.2,81,69,56,30.29,30.09,18,4,20,0.00
2012-1-26,44.8,37.9,33.4,43.5,34.7,29.5,97,88,78,30.23,29.86,19,6,19,0.13
2012-1-27,53.2,48.7,43.2,52.0,46.0,33.8,100,91,67,29.86,29.29,35,14,35,0.10
2012-1-28,45.7,42.4,36.9,40.6,34.2,28.8,87,73,55,30.05,29.78,32,10,32,0.00
2012-1-29,43.9,39.8,35.4,33.6,23.6,15.4,71,53,37,30.18,29.99,28,12,28,0.00
2012-1-30,44.6,37.5,32.9,35.1,22.4,14.9,71,55,38,30.32,29.99,35,10,35,0.00
2012-1-31,47.3,43.8,36.1,42.6,37.6,24.8,91,79,57,30.29,30.03,25,11,25,0.00
2012-2-1,49.8,46.7,44.4,45.5,42.9,40.6,92,87,74,30.04,29.85,24,9,24,0.03
2012-2-2,48.4,41.5,36.3,40.8,33.6,26.4,84,74,63,30.20,29.97,24,6,25,0.00
2012-2-3,40.8,35.1,28.9,26.4,21.1,14.0,76,58,36,30.42,30.20,25,7,25,0.00
2012-2-4,46.2,40.3,32.7,34.0,27.7,23.4,76,61,44,30.34,30.10,16,5,16,0.00
2012-2-5,38.3,33.1,29.1,24.8,20.1,15.6,76,59,42,30.17,30.09,19,6,19,0.00
2012-2-6,45.1,38.3,27.0,41.0,31.5,19.8,89,76,68,30.16,29.96,32,13,32,0.00
2012-2-7,48.4,42.3,35.1,37.6,31.4,25.5,86,66,49,30.23,29.93,18,7,23,0.00
2012-2-8,37.0,33.7,29.5,29.5,25.6,22.5,93,72,63,30.32,30.06,13,5,18,0.00
2012-2-9,44.6,36.1,28.2,33.8,26.2,19.0,93,70,37,30.14,30.03,20,5,21,0.01
2012-2-10,44.8,39.1,31.5,40.8,32.2,23.9,87,76,65,30.14,29.92,31,9,31,0.01
2012-2-11,38.8,35.4,33.3,34.3,31.1,21.4,100,85,56,29.92,29.52,20,5,25,0.10
2012-2-12,34.0,27.6,20.8,22.3,13.1,4.6,72,54,46,29.97,29.59,33,13,34,0.00
2012-2-13,40.3,34.5,24.8,30.4,23.1,10.6,75,63,52,30.03,29.91,32,15,32,0.00
2012-2-14,44.6,39.7,35.1,40.8,30.6,20.1,92,71,43,30.13,30.03,31,3,31,0.02
2012-2-15,46.9,42.2,38.1,45.7,38.4,35.1,97,87,75,30.27,30.08,12,3,12,0.01
2012-2-16,43.0,38.9,32.2,41.7,35.2,28.4,95,86,75,30.31,30.05,16,3,16,0.08
2012-2-17,51.3,44.6,37.2,45.5,37.0,24.3,98,77,47,30.05,29.88,22,6,22,0.02
2012-2-18,42.6,38.9,33.4,36.7,29.9,24.6,87,70,52,30.07,29.90,29,7,29,0.02
2012-2-19,45.3,36.9,31.6,33.6,29.1,23.2,91,74,44,30.08,29.94,20,4,20,0.00
2012-2-20,43.2,36.2,31.3,26.8,20.4,16.3,66,53,36,30.34,29.95,30,10,30,0.00
2012-2-21,45.0,37.7,26.8,42.3,29.9,16.9,95,74,57,30.36,29.86,26,7,27,0.04
2012-2-22,49.6,45.0,41.5,45.1,41.9,39.2,96,89,69,29.86,29.52,26,9,26,0.04
2012-2-23,59.2,48.4,39.7,47.5,37.8,25.5,95,70,36,29.79,29.38,35,10,35,0.00
2012-2-24,48.0,42.7,37.4,47.1,39.9,32.0,97,90,66,29.78,29.26,35,14,35,0.30
2012-2-25,45.9,41.1,34.0,40.3,25.1,13.3,88,53,37,29.95,29.36,38,16,38,0.00
2012-2-26,42.3,35.6,30.7,25.2,16.5,12.4,67,46,32,30.45,29.95,30,7,35,0.00
2012-2-27,47.1,40.6,27.3,42.8,35.0,18.7,90,80,60,30.45,30.07,29,10,29,0.00
2012-2-28,49.5,43.6,37.0,41.2,26.9,23.0,80,52,36,30.39,30.07,34,8,34,0.00
2012-2-29,44.4,40.3,35.2,42.4,34.5,23.5,100,80,60,30.39,29.75,43,12,43,0.22
2012-3-1,43.5,40.2,33.3,42.4,38.8,30.2,96,95,88,29.97,29.58,54,12,56,0.22
2012-3-2,43.5,36.3,30.6,41.0,32.7,27.5,92,87,81,30.15,29.86,35,11,35,0.07
2012-3-3,49.8,46.8,43.5,48.9,44.1,28.8,99,91,51,29.86,29.43,34,14,34,0.07
2012-3-4,46.0,41.1,36.9,31.5,25.5,20.8,65,54,39,29.72,29.56,18,5,19,0.07
2012-3-5,42.4,36.4,29.7,26.4,17.7,6.8,69,47,29,30.33,29.72,22,8,23,0.00
2012-3-6,41.4,33.2,24.1,34.2,17.7,5.5,76,53,30,30.62,30.33,25,10,26,0.00
2012-3-7,48.7,45.3,40.8,45.7,40.7,34.0,91,84,76,30.60,30.34,33,18,35,0.00
2012-3-8,53.1,50.3,47.5,49.1,47.3,45.1,93,89,86,30.35,29.86,43,21,43,0.00
2012-3-9,52.9,44.2,37.2,49.6,32.5,20.1,95,66,34,30.22,29.81,47,11,47,0.07
2012-3-10,41.4,36.0,30.6,25.7,18.0,11.5,70,48,39,30.54,30.22,26,8,27,0.00
2012-3-11,46.2,43.4,39.7,43.2,34.4,24.1,92,71,54,30.54,30.35,32,16,32,0.00
2012-3-12,50.5,47.1,43.9,46.8,43.5,41.4,92,87,78,30.35,30.16,22,9,22,0.00
2012-3-13,50.4,48.5,47.1,49.8,47.4,46.0,100,96,91,30.16,29.96,19,7,20,0.03
2012-3-14,67.1,55.0,45.3,54.1,44.7,25.7,97,74,22,30.22,29.96,33,7,33,0.03
2012-3-15,45.3,43.6,42.8,43.3,41.5,40.1,96,92,89,30.35,30.21,32,14,32,0.00
2012-3-16,45.9,44.2,42.8,45.1,42.5,39.7,97,94,89,30.32,30.10,25,10,25,0.02
2012-3-17,54.1,46.9,40.3,49.5,44.8,39.6,98,93,79,30.38,30.18,24,7,24,0.02
2012-3-18,47.5,44.9,40.1,46.2,44.0,38.8,99,96,94,30.38,30.22,22,7,24,0.01
2012-3-19,57.4,51.0,44.2,53.8,48.9,44.1,99,92,80,30.25,30.19,16,6,17,0.01
2012-3-20,55.9,52.7,48.6,54.1,51.4,46.2,98,96,89,30.35,30.25,11,3,11,0.00
2012-3-21,57.4,54.5,51.6,57.0,54.0,51.1,99,98,96,30.38,30.30,14,3,14,0.01
2012-3-22,58.5,54.7,52.5,57.0,54.2,52.2,100,98,93,30.31,30.08,21,8,21,0.01
2012-3-23,68.7,57.4,52.2,60.4,52.0,46.2,99,83,62,30.14,30.04,31,7,31,0.00
2012-3-24,56.3,52.2,48.9,48.2,43.3,36.1,87,73,47,30.14,29.99,31,13,32,0.00
2012-3-25,49.3,47.5,45.0,46.2,43.8,40.1,92,87,78,30.00,29.72,30,11,31,0.23
2012-3-26,55.6,46.0,35.6,48.4,30.1,9.0,95,59,29,30.05,29.67,42,11,42,0.00
2012-3-27,47.7,37.9,30.2,26.8,9.1,5.7,62,31,19,30.23,30.05,29,8,29,0.00
2012-3-28,51.1,47.5,36.9,48.2,42.5,27.5,94,83,64,30.17,29.54,27,10,27,0.02
2012-3-29,54.3,50.5,44.1,47.7,39.9,31.1,92,68,50,29.98,29.55,30,8,30,0.02
2012-3-30,53.2,44.8,38.5,38.3,28.8,15.1,73,55,23,30.07,29.96,24,8,24,0.00
2012-3-31,46.4,41.8,39.6,40.5,38.8,32.5,97,90,60,30.04,29.85,31,10,31,0.19
2012-4-1,49.5,44.3,39.2,45.0,40.6,37.6,96,87,71,29.90,29.62,24,7,25,0.19
2012-4-2,54.1,47.6,40.1,45.5,34.2,20.3,96,65,30,29.84,29.56,30,10,30,0.10
2012-4-3,60.4,48.5,36.0,45.9,21.1,8.8,85,38,14,29.91,29.75,27,7,28,0.00
2012-4-4,67.5,55.6,45.9,46.2,33.8,17.2,90,50,18,29.76,29.48,33,6,34,0.00
2012-4-5,54.7,46.5,40.6,41.0,33.0,26.2,80,60,35,29.92,29.69,27,8,27,0.00
2012-4-6,55.2,46.0,36.1,30.9,26.9,22.6,71,49,29,30.00,29.87,22,6,22,0.00
2012-4-7,58.3,48.9,38.3,39.6,24.7,16.3,73,41,21,30.04,29.92,26,8,28,0.00
2012-4-8,60.1,50.9,46.0,46.2,37.2,24.8,86,62,30,30.00,29.65,22,7,23,0.00
2012-4-9,62.8,55.6,49.5,44.2,29.0,19.2,71,38,20,29.69,29.59,35,11,37,0.00
2012-4-10,55.4,51.1,47.5,45.1,37.1,25.3,80,60,37,29.78,29.66,32,9,37,0.00
2012-4-11,55.6,48.0,39.6,40.6,35.0,31.5,84,62,42,29.86,29.74,22,7,22,0.01
2012-4-12,57.7,49.2,44.1,41.9,39.7,34.7,88,71,45,30.09,29.85,27,7,27,0.02
2012-4-13,60.3,49.7,40.6,45.5,39.7,26.4,93,71,31,30.19,30.09,28,10,28,0.02
2012-4-14,61.0,52.9,45.3,50.0,43.4,30.7,87,71,33,30.20,30.02,26,8,26,0.00
2012-4-15,59.9,56.2,52.2,55.9,52.3,49.1,93,87,80,30.05,29.95,24,10,25,0.01
2012-4-16,63.1,57.8,53.8,58.3,54.7,51.4,95,90,82,30.04,29.93,19,6,20,0.00
2012-4-17,78.8,66.6,55.0,61.5,48.2,34.0,96,59,21,30.13,29.91,21,8,23,0.00
2012-4-18,61.5,54.8,50.5,45.7,38.8,34.2,78,56,39,30.23,30.12,27,8,29,0.00
2012-4-19,56.3,53.0,49.6,50.2,47.6,43.0,88,82,71,30.14,30.02,17,7,18,0.01
2012-4-20,60.1,55.5,52.2,54.1,52.0,49.3,95,88,76,30.06,29.87,19,8,19,0.00
2012-4-21,61.2,55.7,52.2,57.6,54.5,51.6,99,96,88,29.88,29.70,20,7,20,0.00
2012-4-22,58.1,53.5,51.3,57.7,52.2,49.3,99,95,85,29.76,29.32,40,12,43,1.47
2012-4-23,58.6,53.3,50.0,58.1,50.6,43.3,98,91,76,29.43,29.19,47,19,47,0.14
2012-4-24,53.8,49.8,45.7,48.7,42.0,36.3,86,75,57,29.70,29.40,37,21,37,0.14
2012-4-25,55.2,50.6,42.6,49.5,41.5,35.2,89,72,51,29.91,29.70,25,6,30,0.00
2012-4-26,54.9,50.5,42.3,53.8,47.4,38.7,98,89,79,29.94,29.57,23,9,23,0.02
2012-4-27,55.8,50.0,41.7,55.2,36.6,26.1,99,62,42,30.11,29.55,35,14,35,0.01
2012-4-28,55.0,47.2,37.2,46.4,35.1,22.5,80,64,31,30.21,30.10,27,10,29,0.00
2012-4-29,62.2,52.0,41.7,45.1,28.4,18.0,79,43,18,30.23,30.04,21,8,28,0.00
2012-4-30,53.8,49.4,40.5,45.1,31.6,22.3,79,52,33,30.35,30.23,19,7,19,0.00
2012-5-1,61.3,54.0,51.1,58.8,50.8,44.4,99,89,76,30.24,29.95,26,11,26,0.71
2012-5-2,52.9,50.8,48.0,50.0,48.2,45.9,95,91,87,30.19,30.09,26,10,26,0.00
2012-5-3,51.4,50.7,50.2,50.9,49.9,49.3,99,97,95,30.19,30.10,21,8,21,0.20
2012-5-4,56.5,53.5,51.1,55.9,53.1,50.7,99,99,97,30.10,29.88,18,5,19,0.10
2012-5-5,54.5,53.6,52.5,54.3,53.2,51.6,100,99,97,30.06,29.89,17,5,17,0.10
2012-5-6,55.0,53.0,51.4,52.9,50.7,48.9,97,92,84,30.14,30.04,19,7,19,0.00
2012-5-7,57.9,53.9,47.7,52.3,50.2,46.6,100,88,77,30.17,30.10,18,6,18,0.00
2012-5-8,58.5,56.5,54.3,56.5,52.9,48.9,95,88,76,30.12,29.88,24,12,27,0.01
2012-5-9,58.8,57.0,55.2,58.5,56.6,54.9,100,99,95,29.88,29.57,25,10,26,1.06
2012-5-10,65.8,58.0,52.2,56.8,48.9,38.1,100,75,42,29.81,29.46,29,9,30,1.07
2012-5-11,66.7,57.2,49.6,51.6,41.0,32.5,77,57,29,30.09,29.81,32,9,32,0.00
2012-5-12,65.8,58.8,48.9,55.8,46.7,34.3,84,65,42,30.21,30.09,25,8,25,0.00
2012-5-13,65.1,60.9,57.9,58.8,56.4,54.1,90,85,79,30.19,30.12,21,10,21,0.00
2012-5-14,63.3,60.3,57.9,59.9,57.7,55.9,94,91,84,30.19,30.11,22,9,22,0.00
2012-5-15,61.2,60.0,59.2,60.8,58.3,56.7,99,94,89,30.18,29.98,27,12,27,0.20
2012-5-16,64.8,60.7,58.5,63.9,60.0,58.1,100,98,91,29.98,29.87,17,5,17,0.06
2012-5-17,70.3,60.8,54.9,61.5,49.6,38.5,99,70,33,30.14,29.90,25,7,25,0.01
2012-5-18,65.1,58.1,49.5,55.4,46.0,37.2,96,67,38,30.25,30.13,20,7,20,0.01
2012-5-19,70.2,59.0,50.4,52.3,47.0,40.8,85,65,43,30.17,30.12,23,10,23,0.00
2012-5-20,70.5,62.2,54.1,56.1,48.0,34.9,87,62,28,30.26,30.14,31,11,31,0.00
2012-5-21,62.6,60.1,57.7,61.5,59.0,55.4,99,96,87,30.22,30.03,28,11,30,0.04
2012-5-22,63.9,61.5,59.7,62.8,60.9,58.8,99,98,95,30.03,29.83,28,9,28,0.15
2012-5-23,67.8,63.3,59.7,65.1,61.9,59.4,99,95,90,30.07,29.88,14,3,14,0.00
2012-5-24,62.8,60.7,59.4,62.1,60.1,58.5,100,98,97,30.23,30.07,27,11,27,0.01
2012-5-25,65.5,62.8,59.7,65.1,62.6,59.4,100,100,98,30.23,30.14,20,7,21,0.02
2012-5-26,71.2,65.9,62.2,68.0,64.9,62.2,100,97,87,30.17,30.08,23,10,24,0.00
2012-5-27,74.1,67.7,64.9,68.0,64.7,60.8,98,90,76,30.17,30.04,15,4,15,0.00
2012-5-28,74.7,68.5,65.5,70.2,66.9,65.1,99,95,84,30.03,29.92,19,6,19,0.00
2012-5-29,72.3,69.8,66.6,70.7,68.4,65.7,98,95,91,29.93,29.74,29,10,29,0.01
2012-5-30,71.1,68.1,64.9,69.6,66.6,64.4,98,95,83,29.78,29.73,13,3,13,0.01
2012-5-31,80.1,70.4,61.5,66.9,57.5,49.8,100,69,36,29.92,29.71,22,5,23,0.01
2012-6-1,67.5,62.9,59.7,61.9,57.7,53.2,97,83,69,30.05,29.88,39,18,39,0.00
2012-6-2,70.5,65.8,62.4,66.0,61.8,54.1,99,88,59,29.88,29.66,71,15,71,1.11
2012-6-3,73.8,65.1,57.7,61.0,57.2,50.4,93,77,47,29.74,29.62,29,7,29,0.00
2012-6-4,61.7,57.8,53.4,58.8,51.7,48.0,93,81,65,29.80,29.60,39,13,39,0.00
2012-6-5,63.9,57.0,52.0,53.6,50.5,47.5,89,79,63,29.96,29.78,22,8,22,0.02
2012-6-6,64.4,59.8,52.7,59.5,56.2,50.5,96,88,79,30.00,29.94,22,7,24,0.01
2012-6-7,68.4,64.4,59.7,62.2,60.0,57.4,95,86,73,29.97,29.91,22,5,22,0.06
2012-6-8,71.8,65.7,57.9,64.6,60.9,55.6,94,85,65,29.93,29.82,26,7,26,0.00
2012-6-9,75.6,68.7,64.4,65.8,62.1,59.2,95,80,64,29.97,29.83,14,3,14,0.00
2012-6-10,78.3,68.7,62.1,66.4,64.0,60.3,94,85,64,30.20,29.96,18,5,18,0.00
2012-6-11,66.0,64.7,63.9,62.2,60.8,59.0,92,87,80,30.29,30.19,23,12,23,0.00
2012-6-12,67.8,65.6,64.2,64.6,63.4,61.7,97,93,88,30.22,29.95,21,11,22,0.11
2012-6-13,65.7,64.6,63.3,64.6,63.9,62.8,99,98,96,30.06,29.87,24,12,27,1.66
2012-6-14,68.7,64.2,57.9,64.9,61.7,54.3,98,91,81,30.25,30.06,28,8,28,1.66
2012-6-15,75.0,64.6,55.0,61.0,56.2,48.6,97,76,42,30.31,30.22,29,10,29,0.00
2012-6-16,73.8,63.2,57.4,60.6,57.6,53.8,92,83,54,30.33,30.25,27,11,27,0.00
2012-6-17,63.3,60.5,56.7,57.4,54.7,52.7,88,81,71,30.26,30.13,21,10,21,0.00
2012-6-18,63.7,60.8,57.6,58.1,55.5,53.2,88,83,75,30.16,30.12,19,8,19,0.00
2012-6-19,68.4,64.9,61.3,65.5,61.0,56.7,95,87,83,30.18,30.08,17,7,17,0.00
2012-6-20,80.1,73.1,66.6,74.8,69.8,65.1,96,89,82,30.08,29.90,19,9,19,0.00
2012-6-21,93.7,82.5,75.4,74.5,72.3,68.0,90,73,46,29.92,29.77,17,5,18,0.00
2012-6-22,90.9,78.6,71.2,76.6,72.8,68.9,94,83,59,29.81,29.73,18,2,18,0.02
2012-6-23,83.8,74.3,67.6,70.7,65.8,55.6,97,77,40,29.97,29.79,21,5,21,0.08
2012-6-24,81.0,71.5,62.8,68.7,63.0,52.3,91,75,38,30.01,29.90,22,6,22,0.08
2012-6-25,71.6,67.4,61.5,68.9,64.7,58.6,97,91,80,29.91,29.65,30,7,36,1.78
2012-6-26,72.0,64.3,55.9,58.5,55.0,51.6,91,73,57,29.74,29.64,30,8,30,0.00
2012-6-27,81.3,71.7,63.3,58.5,52.8,47.5,74,53,32,29.80,29.68,22,7,24,0.00
2012-6-28,76.8,70.7,64.8,68.9,62.2,53.4,93,75,59,29.83,29.73,22,5,22,0.00
2012-6-29,87.6,74.4,70.0,73.9,70.3,66.7,93,87,60,29.74,29.62,23,7,23,0.00
2012-6-30,90.0,76.9,70.0,73.6,69.5,54.3,95,80,31,29.77,29.64,22,7,22,0.00
2012-7-1,82.2,75.8,70.9,72.9,69.6,64.2,95,82,64,29.84,29.74,23,4,23,0.00
2012-7-2,85.8,77.2,68.9,69.4,64.4,59.2,92,66,44,29.90,29.82,20,4,20,0.00
2012-7-3,83.7,74.5,66.4,71.2,65.8,59.5,92,75,48,29.95,29.84,17,5,19,0.00
2012-7-4,79.3,74.9,72.5,73.9,71.8,69.1,96,90,78,29.85,29.71,22,6,22,0.06
2012-7-5,89.4,80.8,73.9,73.9,69.3,59.0,95,71,37,29.85,29.66,18,5,18,0.06
2012-7-6,82.0,75.9,68.5,74.1,71.6,67.5,98,87,66,29.92,29.85,17,5,17,0.00
2012-7-7,89.1,80.0,72.9,77.4,72.9,67.6,97,81,57,29.88,29.76,20,6,21,0.15
2012-7-8,86.4,77.7,71.6,73.4,70.9,66.7,95,81,57,29.86,29.79,19,5,19,0.15
2012-7-9,79.5,74.4,69.3,70.0,62.7,55.0,84,68,47,29.97,29.84,16,6,16,0.00
2012-7-10,78.4,73.7,67.8,71.4,67.4,63.7,90,81,67,30.09,29.96,17,5,17,0.00
2012-7-11,79.3,73.8,68.0,71.8,68.9,65.5,96,85,71,30.19,30.08,14,4,14,0.00
2012-7-12,77.7,73.2,65.7,70.2,67.0,64.2,96,82,70,30.21,30.15,17,5,17,0.00
2012-7-13,79.3,76.1,74.3,73.4,69.5,64.6,87,80,68,30.21,30.16,16,6,16,0.00
2012-7-14,82.8,77.7,74.8,72.9,70.5,66.9,90,79,63,30.19,30.12,25,8,25,0.00
2012-7-15,79.3,76.4,72.5,76.6,73.7,70.2,97,92,83,30.15,29.91,24,8,25,0.35
2012-7-16,83.5,77.0,70.9,75.6,73.3,69.6,97,89,69,29.92,29.77,26,8,26,0.36
2012-7-17,82.8,78.6,72.9,75.7,72.6,69.1,96,82,68,29.85,29.74,26,8,26,0.00
2012-7-18,82.2,78.0,72.5,78.1,74.6,69.4,97,90,82,29.87,29.75,37,9,38,0.38
2012-7-19,74.7,72.6,70.9,73.6,67.2,61.9,97,84,69,29.99,29.85,23,6,24,0.38
2012-7-20,72.1,66.9,62.6,67.6,63.7,60.6,95,90,80,30.05,29.95,29,11,29,0.29
2012-7-21,72.9,67.2,60.4,63.9,61.3,57.6,93,82,65,30.13,30.02,22,8,22,0.29
2012-7-22,73.8,69.4,60.8,66.7,63.2,58.8,94,81,67,30.19,30.12,18,5,18,0.00
2012-7-23,77.2,74.7,72.1,74.5,71.7,66.4,96,91,82,30.13,29.78,26,10,26,0.00
2012-7-24,89.4,79.3,74.7,75.2,71.1,64.9,95,78,51,29.81,29.56,34,10,34,0.00
2012-7-25,82.6,74.4,65.5,69.4,59.9,55.0,87,62,41,29.87,29.70,23,8,23,0.00
2012-7-26,78.4,75.1,72.7,75.2,71.8,66.9,96,90,79,29.81,29.64,29,12,29,0.07
2012-7-27,81.0,76.3,72.1,75.9,73.3,70.5,96,91,77,29.87,29.64,25,7,25,0.00
2012-7-28,75.2,70.8,67.6,73.8,69.8,66.7,99,97,91,29.98,29.87,30,8,30,0.81
2012-7-29,75.6,70.7,67.6,69.8,68.2,66.2,98,92,80,30.06,29.89,18,5,18,0.81
2012-7-30,72.7,69.5,64.0,67.8,65.8,62.6,97,88,79,30.14,30.05,14,6,15,0.00
2012-7-31,73.9,71.4,68.2,69.4,67.6,65.1,94,88,82,30.11,29.90,24,7,24,0.00
2012-8-1,77.4,73.6,67.6,73.6,71.2,65.8,96,92,88,29.94,29.84,16,5,16,0.00
2012-8-2,79.2,75.8,73.0,75.0,73.6,72.0,98,93,86,29.94,29.83,20,6,21,0.00
2012-8-3,80.4,77.2,75.0,77.5,75.7,73.8,99,95,89,30.11,29.93,16,7,16,0.00
2012-8-4,81.1,77.9,75.6,78.6,76.6,75.0,99,96,91,30.23,30.11,15,6,15,0.00
2012-8-5,80.2,78.2,74.1,78.4,76.8,72.7,98,96,88,30.21,29.98,41,13,45,0.07
2012-8-6,85.1,77.4,70.2,75.6,69.6,61.5,98,79,50,30.01,29.94,35,6,35,0.56
2012-8-7,78.4,72.9,65.8,71.4,66.2,61.3,92,80,59,30.02,29.97,14,4,14,0.56
2012-8-8,79.9,75.7,68.7,75.6,72.9,67.3,97,91,81,30.01,29.94,14,4,14,0.00
2012-8-9,80.2,77.0,72.9,76.6,74.8,72.3,99,93,86,29.97,29.89,16,5,16,0.00
2012-8-10,80.1,77.1,73.8,77.0,75.5,72.3,97,95,91,29.93,29.78,34,10,35,0.67
2012-8-11,79.5,76.9,75.4,76.6,75.1,70.7,97,94,79,29.94,29.82,24,9,24,0.67
2012-8-12,78.6,76.3,73.0,75.4,73.8,71.8,97,92,88,29.95,29.89,21,9,21,0.03
2012-8-13,81.1,74.9,68.2,73.0,68.5,62.8,93,81,59,30.00,29.93,23,6,23,0.03
2012-8-14,80.1,75.1,67.8,74.3,69.9,63.7,91,84,68,29.98,29.89,16,4,16,0.00
2012-8-15,75.9,72.4,68.7,73.6,69.7,65.8,97,91,84,29.92,29.82,37,7,37,1.76
2012-8-16,83.7,75.4,68.0,72.7,68.4,62.8,98,81,52,29.89,29.83,18,4,18,1.76
2012-8-17,79.3,75.1,66.9,75.0,69.9,61.3,93,84,75,29.89,29.79,20,6,20,0.00
2012-8-18,74.3,67.9,63.3,69.6,64.9,62.2,98,91,74,29.92,29.81,23,4,23,0.88
2012-8-19,77.5,68.5,59.7,64.0,60.8,55.0,96,77,52,29.97,29.89,12,2,12,0.88
2012-8-20,77.2,70.3,64.4,64.9,61.9,57.6,88,75,58,29.94,29.85,12,2,12,0.00
2012-8-21,81.7,72.2,66.7,68.2,65.3,57.6,92,80,47,30.10,29.91,13,3,13,0.00
2012-8-22,78.6,72.4,64.9,70.9,66.9,61.9,93,83,64,30.16,30.08,12,3,12,0.00
2012-8-23,77.4,72.2,64.9,71.6,68.5,63.3,98,88,74,30.17,30.11,16,4,16,0.00
2012-8-24,80.1,74.2,67.5,72.5,70.0,65.5,95,87,74,30.19,30.11,10,2,10,0.00
2012-8-25,77.7,73.2,68.7,73.0,68.6,65.3,98,86,73,30.29,30.18,26,10,26,0.00
2012-8-26,74.8,71.8,66.6,69.4,67.2,64.8,96,85,77,30.33,30.23,23,10,25,0.00
2012-8-27,78.6,73.4,65.8,75.0,70.9,64.0,98,92,83,30.23,29.96,29,6,29,0.22
2012-8-28,84.6,77.8,72.1,74.8,70.8,62.2,97,81,58,29.96,29.77,32,9,32,0.08
2012-8-29,75.2,69.7,62.4,62.8,56.9,50.9,87,65,45,30.01,29.87,23,6,23,0.00
2012-8-30,77.2,70.0,60.6,71.2,60.5,53.2,91,73,52,30.10,30.00,24,7,24,0.00
2012-8-31,79.0,74.9,70.3,75.0,70.6,63.9,94,87,78,30.04,29.88,31,10,31,0.00
2012-9-1,83.5,75.6,71.8,71.8,68.9,64.9,92,80,63,30.07,29.89,30,11,30,0.00
2012-9-2,75.7,71.9,66.6,70.7,67.3,64.0,95,86,73,30.10,30.02,20,5,20,0.00
2012-9-3,73.4,71.4,67.8,69.8,67.2,64.0,95,87,79,30.19,30.09,29,12,29,0.00
2012-9-4,76.3,74.4,72.1,74.5,72.6,68.2,98,94,84,30.11,29.87,28,9,28,0.35
2012-9-5,78.8,76.1,74.8,76.6,75.3,74.1,99,97,93,29.87,29.76,32,11,32,0.35
2012-9-6,77.0,73.3,70.7,75.0,72.2,70.3,100,96,91,29.91,29.80,17,4,18,0.24
2012-9-7,79.0,75.2,71.4,76.1,73.8,71.1,100,96,89,29.94,29.86,17,4,17,0.01
2012-9-8,78.6,75.2,66.6,76.5,73.7,64.2,98,95,90,29.89,29.62,29,12,29,0.04
2012-9-9,76.5,68.6,64.0,65.3,61.6,55.0,97,80,52,29.87,29.74,18,3,18,0.06
2012-9-10,72.1,66.5,61.0,61.0,53.8,46.0,86,65,46,30.11,29.84,27,8,27,0.06
2012-9-11,71.1,63.0,51.4,57.2,50.7,46.6,87,65,45,30.28,30.10,20,4,20,0.00
2012-9-12,73.8,68.9,59.7,66.7,61.8,56.1,92,78,62,30.36,30.28,16,5,16,0.00
2012-9-13,73.0,69.9,63.5,66.4,64.1,60.4,92,82,76,30.38,30.28,15,6,15,0.00
2012-9-14,73.8,70.4,63.1,68.2,65.7,61.2,94,85,78,30.29,30.09,17,5,17,0.00
2012-9-15,72.5,68.1,59.4,68.4,58.1,51.1,92,72,50,30.09,30.02,27,6,27,0.00
2012-9-16,71.2,63.4,54.9,60.1,54.2,49.1,87,73,49,30.12,30.02,22,4,22,0.00
2012-9-17,72.1,65.7,53.8,61.7,57.0,51.3,92,74,56,30.12,30.05,15,5,15,0.00
2012-9-18,74.8,72.6,69.6,71.4,68.5,61.0,96,87,75,30.05,29.71,45,18,46,0.26
2012-9-19,70.0,65.3,56.7,69.1,56.5,48.0,98,75,49,30.17,29.74,30,6,46,0.21
2012-9-20,66.9,62.1,53.8,59.5,54.9,48.9,93,78,64,30.20,30.12,30,14,32,0.21
2012-9-21,70.9,62.5,57.0,60.8,57.6,54.1,95,85,62,30.12,30.01,23,9,24,0.00
2012-9-22,71.1,64.0,54.0,69.6,61.3,52.7,98,91,79,30.01,29.82,27,7,27,0.00
2012-9-23,70.9,63.9,55.0,69.4,54.4,45.7,96,73,45,30.10,29.82,24,5,27,0.02
2012-9-24,67.5,59.2,52.7,52.7,47.3,39.9,84,66,39,30.14,30.08,19,3,19,0.02
2012-9-25,69.1,63.4,52.0,60.6,53.0,44.1,79,69,60,30.20,30.14,32,12,32,0.00
2012-9-26,71.4,69.3,67.3,67.3,64.6,59.0,95,85,74,30.15,30.03,31,14,31,0.00
2012-9-27,75.2,68.8,66.6,67.3,65.3,63.3,95,89,69,30.17,30.04,19,4,19,0.00
2012-9-28,70.2,67.4,61.5,68.7,64.5,59.7,98,90,81,30.19,29.91,36,17,36,0.03
2012-9-29,62.1,59.7,54.9,61.5,58.7,53.8,100,97,91,29.92,29.86,14,2,14,0.08
2012-9-30,67.3,60.1,55.0,60.8,56.6,51.8,98,89,71,29.88,29.77,20,4,20,0.02
2012-10-1,67.8,61.4,54.9,59.7,54.3,50.0,88,78,66,29.98,29.80,29,9,29,0.02
2012-10-2,69.6,65.0,57.6,68.5,62.3,54.5,99,91,78,30.04,29.96,23,4,23,0.17
2012-10-3,70.5,68.3,67.3,70.3,68.0,66.9,100,99,98,30.11,29.96,9,2,9,0.02
2012-10-4,68.2,53.5,66.6,99.9,74.0,66.6,100,100,100,30.13,30.03,12,2,12,0.03
2012-10-5,158.0,0.0,158.0,99.9,99.9,99.9,100,100,100,30.04,30.01,8,0,8,0.00
2012-10-27,67.6,59.9,57.7,51.8,49.9,45.1,79,70,56,29.99,29.92,20,8,21,0.29
2012-10-28,60.4,58.2,55.2,53.8,51.6,44.6,87,79,59,29.93,29.62,48,19,49,0.00
2012-10-29,60.4,57.6,55.4,58.1,54.3,51.1,92,89,82,29.63,29.00,67,30,67,0.01
2012-11-3,52.2,48.6,44.4,33.6,32.7,30.7,64,54,48,29.91,29.81,26,9,26,0.00
2012-11-4,53.2,45.6,38.1,36.3,34.3,32.5,82,65,50,29.98,29.91,21,6,21,0.00
2012-11-5,46.2,41.8,34.9,33.6,29.1,21.0,69,61,50,30.18,29.96,21,6,21,0.00
2012-11-6,43.9,37.9,30.4,33.8,25.3,21.2,73,61,47,30.26,30.08,25,7,27,0.00
2012-11-7,43.2,39.6,34.9,38.1,34.6,29.8,92,82,63,30.08,29.67,51,23,51,0.54
2012-11-8,43.7,39.8,34.9,37.8,34.7,32.2,93,83,68,29.86,29.67,32,12,32,0.31
2012-11-9,53.6,45.7,39.4,36.7,29.2,23.2,73,54,33,30.20,29.86,28,8,30,0.31
2012-11-10,56.5,49.1,41.2,43.7,40.0,33.6,84,71,50,30.46,30.19,14,3,15,0.00
2012-11-11,59.2,53.8,43.7,53.8,49.1,40.1,93,84,75,30.53,30.45,17,5,17,0.00
2012-11-12,60.8,57.6,49.5,59.4,55.8,48.0,97,94,89,30.51,30.24,23,8,23,0.01
2012-11-13,60.4,51.6,44.1,59.2,47.1,33.6,96,85,64,30.44,30.16,25,10,25,0.09
2012-11-14,48.6,42.7,38.1,36.5,32.2,28.0,79,67,46,30.51,30.44,29,9,29,0.09
2012-11-15,43.2,40.3,36.7,36.0,33.2,29.7,84,76,67,30.46,30.31,21,7,21,0.00
2012-11-16,47.3,41.5,36.7,36.7,32.4,28.8,85,71,55,30.44,30.29,19,4,19,0.00
2012-11-17,51.4,43.3,37.2,38.5,33.8,30.2,84,70,51,30.65,30.44,24,7,24,0.00
2012-11-18,50.5,44.7,39.0,40.6,37.9,36.1,91,78,65,30.69,30.60,21,9,21,0.00
2012-11-19,49.5,45.2,40.6,43.7,40.0,36.5,88,82,76,30.60,30.27,22,10,22,0.00
2012-11-20,50.9,43.9,38.5,42.4,39.2,36.5,93,84,70,30.27,30.14,17,6,17,0.00
2012-11-21,52.9,46.2,41.5,41.0,39.2,37.4,92,77,57,30.26,30.16,22,8,22,0.00
2012-11-22,55.0,46.5,38.1,45.7,42.4,35.8,95,86,64,30.30,30.17,17,6,17,0.00
2012-11-23,54.5,48.4,37.8,50.2,45.1,35.6,100,89,79,30.17,29.71,19,5,19,0.00
2012-11-24,51.3,44.1,37.4,48.2,27.8,17.6,89,54,38,29.83,29.65,32,12,32,0.01
2012-11-25,42.6,38.8,35.8,27.7,23.1,18.7,64,53,44,29.99,29.83,27,10,28,0.01
2012-11-26,48.7,41.2,32.5,31.1,25.8,23.5,74,55,38,30.29,29.99,23,6,24,0.00
2012-11-27,43.5,39.2,35.4,37.6,33.3,26.6,94,80,55,30.34,30.20,23,8,23,0.28
2012-11-28,43.3,38.6,34.7,36.7,30.9,24.8,93,75,52,30.28,30.17,19,7,21,0.00
2012-11-29,45.0,39.3,32.7,32.2,28.3,24.3,78,65,45,30.37,30.28,30,10,30,0.00
2012-11-30,47.1,40.9,34.9,37.0,32.2,27.1,85,71,55,30.49,30.34,23,7,25,0.00
2012-12-1,49.1,43.4,40.5,46.4,39.7,34.5,93,87,79,30.55,30.43,25,11,25,0.00
2012-12-2,53.1,47.7,44.2,50.0,46.0,42.3,100,94,89,30.43,30.16,25,7,25,0.01
2012-12-3,60.4,51.7,42.3,52.0,47.0,39.9,96,85,66,30.32,30.13,18,5,19,0.00
2012-12-4,55.9,50.5,40.3,54.3,48.9,37.4,97,94,88,30.33,30.04,24,6,24,0.05
2012-12-5,57.7,50.8,37.9,53.2,40.9,23.9,96,70,48,30.23,29.94,30,10,31,0.01
2012-12-6,39.2,33.9,28.9,25.7,22.4,19.6,80,63,52,30.38,30.22,24,5,25,0.00
2012-12-7,48.2,42.3,29.7,46.2,37.6,24.1,94,84,68,30.33,30.06,12,2,14,0.04
2012-12-8,53.4,49.1,46.9,52.5,48.1,45.3,100,96,94,30.07,29.89,16,5,16,0.40
2012-12-9,50.4,47.3,45.1,49.3,44.9,40.5,97,91,78,30.28,30.03,32,9,32,0.40
2012-12-10,57.4,54.1,50.4,56.8,53.4,49.3,100,98,96,30.06,29.60,28,9,28,0.92
2012-12-11,53.4,46.3,38.5,52.9,40.6,31.6,98,81,67,30.23,29.60,24,6,24,0.04
2012-12-12,43.2,38.2,34.2,31.8,29.4,27.0,82,71,54,30.48,30.22,15,3,15,0.01
2012-12-13,46.9,38.7,32.4,32.7,28.8,25.7,85,68,47,30.50,30.35,15,4,16,0.00
2012-12-14,47.1,40.2,32.4,37.2,31.2,25.0,81,70,59,30.35,30.16,29,8,29,0.00
2012-12-15,48.9,41.5,36.7,38.5,32.7,30.2,89,71,52,30.35,30.25,20,4,20,0.00
2012-12-16,47.3,46.0,45.1,45.7,42.5,37.2,95,88,73,30.27,29.93,40,21,41,0.08
2012-12-17,51.1,47.6,45.5,50.2,46.4,44.2,97,96,94,29.93,29.69,34,12,34,0.31
2012-12-18,54.9,50.6,46.2,54.1,48.1,38.8,98,92,74,29.69,29.48,32,12,32,0.35
2012-12-19,50.0,45.1,39.7,38.8,31.8,28.0,78,60,48,30.11,29.58,31,10,31,0.00
2012-12-20,48.0,41.9,34.7,43.0,34.0,28.2,83,74,62,30.25,29.93,37,10,37,0.00
2012-12-21,58.3,48.1,40.6,55.6,42.4,30.6,94,81,65,29.94,29.18,52,27,57,0.41
2012-12-22,40.8,38.6,36.5,34.0,26.5,20.1,85,62,45,29.81,29.35,42,16,43,0.41
2012-12-23,43.7,39.2,35.4,32.7,26.7,21.6,71,61,52,29.98,29.81,25,10,25,0.00
2012-12-24,42.1,35.9,30.0,35.4,26.7,21.9,94,70,51,30.12,29.96,16,4,16,0.05
2012-12-25,41.7,37.9,32.5,41.0,34.4,25.5,100,87,74,30.27,29.92,21,8,21,0.12
2012-12-26,45.9,36.3,29.3,43.7,31.5,22.6,93,83,72,30.31,29.53,58,15,62,0.25
2012-12-27,48.6,41.6,33.3,46.8,38.0,25.2,96,87,72,29.78,29.22,66,18,69,0.25
2012-12-28,40.3,34.3,29.7,28.4,25.8,21.7,85,71,59,30.10,29.78,30,8,30,0.23
2012-12-29,39.4,34.2,28.9,37.8,31.6,25.3,95,90,85,30.08,29.44,33,9,33,0.32
2012-12-30,36.0,32.7,30.4,32.9,23.2,14.9,95,69,50,30.15,29.52,36,13,36,0.32
2012-12-31,41.5,34.9,29.3,30.6,24.7,14.5,76,66,50,30.20,29.88,28,14,28,0.01
2013-1-1,41.4,38.0,29.7,33.4,27.3,17.2,82,66,51,30.01,29.83,25,9,27,0.00